• în România
  • Lista ţărilor
  • Pe 7 zile
  • Temperatura apei
  • Hartă satelitară
  • Meteo pe hartă
  • Widget-uri
  • user-avatar
    Intrare

    Meteo pe oră la Novo-Ivanovskoe

    Astăzi, 17 Iulie, Marţi

    Timp Temperatura Precipitaţii Vânt Presiune Umiditate
    00:00 +20°C° 0 mm 3 m/s 747 mmHg 94%
    01:00 +19°C° 0 mm 3 m/s 747 mmHg 95%
    02:00 +19°C° 0 mm 3 m/s 747 mmHg 96%
    03:00 +19°C° 0 mm 3 m/s 747 mmHg 94%
    04:00 +20°C° 0 mm 3 m/s 747 mmHg 93%
    05:00 +20°C° 0 mm 4 m/s 747 mmHg 91%
    06:00 +21°C° 0 mm 4 m/s 747 mmHg 85%
    07:00 +23°C° 0 mm 5 m/s 746 mmHg 79%
    08:00 +25°C° 0 mm 5 m/s 746 mmHg 73%
    09:00 +26°C° 0 mm 5 m/s 746 mmHg 69%
    10:00 +27°C° 0 mm 5 m/s 746 mmHg 65%
    11:00 +28°C° 0 mm 6 m/s 746 mmHg 61%
    12:00 +28°C° 0,1 mm 6 m/s 745 mmHg 61%
    13:00 +28°C° 0,1 mm 6 m/s 745 mmHg 61%
    14:00 +29°C° 0,1 mm 6 m/s 745 mmHg 61%
    15:00 +28°C° 0,2 mm 6 m/s 745 mmHg 65%
    16:00 +27°C° 0,2 mm 6 m/s 744 mmHg 69%
    17:00 +27°C° 0,2 mm 5 m/s 744 mmHg 72%
    18:00 +26°C° 0 mm 5 m/s 744 mmHg 76%
    19:00 +23°C° 0 mm 4 m/s 744 mmHg 79%
    20:00 +22°C° 0 mm 4 m/s 744 mmHg 82%
    21:00 +22°C° 0 mm 4 m/s 744 mmHg 84%
    22:00 +21°C° 0 mm 4 m/s 744 mmHg 86%
    23:00 +21°C° 0 mm 4 m/s 744 mmHg 89%

    Mâine, 18 Iulie, Miercuri

    Timp Temperatura Precipitaţii Vânt Presiune Umiditate
    00:00 +20°C° 0 mm 4 m/s 744 mmHg 90%
    01:00 +20°C° 0 mm 4 m/s 744 mmHg 91%
    02:00 +20°C° 0 mm 4 m/s 744 mmHg 92%
    03:00 +20°C° 0,2 mm 4 m/s 744 mmHg 92%
    04:00 +20°C° 0,2 mm 4 m/s 743 mmHg 91%
    05:00 +20°C° 0,2 mm 5 m/s 743 mmHg 91%
    06:00 +21°C° 0,1 mm 5 m/s 743 mmHg 89%
    07:00 +21°C° 0,1 mm 5 m/s 743 mmHg 86%
    08:00 +22°C° 0,1 mm 5 m/s 743 mmHg 83%
    09:00 +23°C° 0,1 mm 6 m/s 743 mmHg 79%
    10:00 +24°C° 0,1 mm 6 m/s 743 mmHg 74%
    11:00 +27°C° 0,1 mm 6 m/s 743 mmHg 69%
    12:00 +26°C° 0,6 mm 6 m/s 743 mmHg 72%
    13:00 +26°C° 0,6 mm 6 m/s 743 mmHg 74%
    14:00 +26°C° 0,6 mm 6 m/s 743 mmHg 76%
    15:00 +26°C° 0,5 mm 5 m/s 743 mmHg 78%
    16:00 +25°C° 0,5 mm 5 m/s 743 mmHg 80%
    17:00 +23°C° 0,5 mm 5 m/s 743 mmHg 82%
    18:00 +22°C° 0 mm 5 m/s 743 mmHg 84%
    19:00 +21°C° 0 mm 4 m/s 743 mmHg 85%
    20:00 +20°C° 0 mm 4 m/s 743 mmHg 86%
    21:00 +20°C° 0 mm 4 m/s 743 mmHg 87%
    22:00 +20°C° 0 mm 4 m/s 743 mmHg 88%
    23:00 +20°C° 0 mm 4 m/s 743 mmHg 89%

    Poimâine, 19 Iulie, Joi

    Timp Temperatura Precipitaţii Vânt Presiune Umiditate
    00:00 +20°C° 0 mm 4 m/s 742 mmHg 90%
    01:00 +20°C° 0 mm 4 m/s 742 mmHg 90%
    02:00 +20°C° 0 mm 4 m/s 742 mmHg 91%
    03:00 +20°C° 0,1 mm 4 m/s 742 mmHg 91%
    04:00 +20°C° 0,1 mm 5 m/s 742 mmHg 91%
    05:00 +20°C° 0,1 mm 5 m/s 742 mmHg 91%
    06:00 +20°C° 0,1 mm 5 m/s 742 mmHg 91%
    07:00 +20°C° 0,1 mm 5 m/s 742 mmHg 90%
    08:00 +20°C° 0,1 mm 5 m/s 742 mmHg 90%
    09:00 +21°C° 0,3 mm 5 m/s 743 mmHg 89%
    10:00 +21°C° 0,3 mm 5 m/s 743 mmHg 88%
    11:00 +22°C° 0,3 mm 5 m/s 743 mmHg 88%
    12:00 +22°C° 0,6 mm 5 m/s 743 mmHg 88%
    13:00 +22°C° 0,6 mm 5 m/s 743 mmHg 89%
    14:00 +22°C° 0,6 mm 5 m/s 743 mmHg 90%
    15:00 +22°C° 0,7 mm 5 m/s 743 mmHg 90%
    16:00 +22°C° 0,7 mm 5 m/s 743 mmHg 90%
    17:00 +22°C° 0,7 mm 5 m/s 742 mmHg 90%
    18:00 +22°C° 0,3 mm 5 m/s 742 mmHg 92%
    19:00 +21°C° 0,3 mm 4 m/s 742 mmHg 93%
    20:00 +21°C° 0,3 mm 4 m/s 742 mmHg 94%
    21:00 +20°C° 0 mm 4 m/s 742 mmHg 95%
    22:00 +20°C° 0 mm 4 m/s 742 mmHg 95%
    23:00 +19°C° 0 mm 4 m/s 742 mmHg 96%

    20 Iulie, Vineri

    Timp Temperatura Precipitaţii Vânt Presiune Umiditate
    00:00 +19°C° 0 mm 4 m/s 742 mmHg 96%
    01:00 +19°C° 0 mm 4 m/s 742 mmHg 96%
    02:00 +19°C° 0 mm 3 m/s 743 mmHg 96%
    03:00 +19°C° 0 mm 4 m/s 743 mmHg 96%
    04:00 +19°C° 0 mm 4 m/s 743 mmHg 96%
    05:00 +19°C° 0 mm 4 m/s 743 mmHg 95%
    06:00 +20°C° 0,4 mm 4 m/s 743 mmHg 93%
    07:00 +21°C° 0,4 mm 4 m/s 744 mmHg 91%
    08:00 +22°C° 0,4 mm 4 m/s 744 mmHg 90%
    09:00 +22°C° 0,9 mm 4 m/s 744 mmHg 88%
    10:00 +23°C° 0,9 mm 4 m/s 744 mmHg 86%
    11:00 +25°C° 0,9 mm 4 m/s 744 mmHg 84%
    12:00 +26°C° 1,2 mm 4 m/s 744 mmHg 82%
    13:00 +26°C° 1,2 mm 4 m/s 744 mmHg 80%
    14:00 +27°C° 1,2 mm 4 m/s 744 mmHg 77%
    15:00 +27°C° 0,5 mm 4 m/s 744 mmHg 78%
    16:00 +27°C° 0,5 mm 4 m/s 744 mmHg 78%
    17:00 +27°C° 0,5 mm 4 m/s 743 mmHg 78%
    18:00 +26°C° 0,1 mm 3 m/s 743 mmHg 82%
    19:00 +24°C° 0,1 mm 3 m/s 743 mmHg 85%
    20:00 +22°C° 0,1 mm 3 m/s 743 mmHg 89%
    21:00 +21°C° 0 mm 3 m/s 743 mmHg 91%
    22:00 +21°C° 0 mm 3 m/s 743 mmHg 93%
    23:00 +20°C° 0 mm 3 m/s 743 mmHg 95%

    21 Iulie, Sâmbătă

    Timp Temperatura Precipitaţii Vânt Presiune Umiditate
    00:00 +20°C° 0,3 mm 3 m/s 743 mmHg 96%
    01:00 +20°C° 0,3 mm 3 m/s 743 mmHg 96%
    02:00 +20°C° 0,3 mm 3 m/s 743 mmHg 97%
    03:00 +20°C° 0 mm 3 m/s 743 mmHg 96%
    04:00 +20°C° 0 mm 3 m/s 743 mmHg 95%
    05:00 +20°C° 0 mm 3 m/s 743 mmHg 95%
    06:00 +22°C° 0 mm 3 m/s 744 mmHg 90%
    07:00 +23°C° 0 mm 4 m/s 744 mmHg 84%
    08:00 +26°C° 0 mm 4 m/s 744 mmHg 79%
    09:00 +27°C° 0,6 mm 4 m/s 744 mmHg 77%
    10:00 +27°C° 0,6 mm 4 m/s 744 mmHg 76%
    11:00 +28°C° 0,6 mm 4 m/s 744 mmHg 74%
    12:00 +28°C° 0,8 mm 4 m/s 744 mmHg 75%
    13:00 +28°C° 0,8 mm 4 m/s 744 mmHg 76%
    14:00 +28°C° 0,8 mm 4 m/s 744 mmHg 77%
    15:00 +27°C° 0,9 mm 4 m/s 743 mmHg 81%
    16:00 +26°C° 0,9 mm 3 m/s 743 mmHg 84%
    17:00 +25°C° 0,9 mm 3 m/s 743 mmHg 88%
    18:00 +25°C° 0,2 mm 3 m/s 743 mmHg 89%
    19:00 +24°C° 0,2 mm 3 m/s 743 mmHg 90%
    20:00 +22°C° 0,2 mm 3 m/s 743 mmHg 92%
    21:00 +22°C° 0,3 mm 3 m/s 743 mmHg 93%
    22:00 +21°C° 0,3 mm 3 m/s 743 mmHg 94%
    23:00 +21°C° 0,3 mm 3 m/s 743 mmHg 95%

    22 Iulie, Duminică

    Timp Temperatura Precipitaţii Vânt Presiune Umiditate
    00:00 +21°C° 0,1 mm 3 m/s 743 mmHg 96%
    01:00 +20°C° 0,1 mm 3 m/s 743 mmHg 96%
    02:00 +20°C° 0,1 mm 3 m/s 743 mmHg 97%
    03:00 +20°C° 0,2 mm 3 m/s 743 mmHg 97%
    04:00 +21°C° 0,2 mm 3 m/s 743 mmHg 96%
    05:00 +21°C° 0,2 mm 3 m/s 743 mmHg 96%
    06:00 +22°C° 0,1 mm 4 m/s 743 mmHg 92%
    07:00 +23°C° 0,1 mm 4 m/s 743 mmHg 88%
    08:00 +26°C° 0,1 mm 4 m/s 743 mmHg 84%
    09:00 +26°C° 0,9 mm 4 m/s 743 mmHg 83%
    10:00 +27°C° 0,9 mm 4 m/s 743 mmHg 81%
    11:00 +27°C° 0,9 mm 4 m/s 744 mmHg 80%
    12:00 +28°C° 0,6 mm 4 m/s 743 mmHg 77%
    13:00 +28°C° 0,6 mm 4 m/s 743 mmHg 75%
    14:00 +29°C° 0,6 mm 4 m/s 743 mmHg 72%
    15:00 +28°C° 1,2 mm 3 m/s 743 mmHg 76%
    16:00 +28°C° 1,2 mm 3 m/s 743 mmHg 80%
    17:00 +27°C° 1,2 mm 3 m/s 743 mmHg 83%
    18:00 +26°C° 0,4 mm 3 m/s 743 mmHg 86%
    19:00 +25°C° 0,4 mm 3 m/s 743 mmHg 89%
    20:00 +24°C° 0,4 mm 3 m/s 743 mmHg 92%
    21:00 +22°C° 0,4 mm 3 m/s 743 mmHg 94%
    22:00 +22°C° 0,4 mm 3 m/s 743 mmHg 95%
    23:00 +21°C° 0,4 mm 2 m/s 743 mmHg 96%
    Arată mai mult